Regional Weather Roundup
Issued by NWS Upton, NY

Current Version | Previous Version | Graphics & Text | Print | Product List | Glossary Off
Versions: 1 2 3 4 5 6 7 8 9 10 11 12 13 14 15 16 17 18 19 20 21 22 23 24 25 26 27 28 29 30 31 32 33 34 35 36 37 38 39 40 41 42 43 44 45 46 47 48 49 50

000
ASUS41 KOKX 260804
RWROKX

REGIONAL WEATHER ROUNDUP
NATIONAL WEATHER SERVICE NEW YORK NY
400 AM EDT THU MAY 26 2016

NOTE: "FAIR" INDICATES FEW OR NO CLOUDS BELOW 12,000 FEET WITH NO
SIGNIFICANT WEATHER AND/OR OBSTRUCTIONS TO VISIBILITY.

NYZ071-072-176-178-NJZ106-104-260900-
NEW YORK CITY METRO AREA


CITY           SKY/WX    TMP DP  RH WIND       PRES   REMARKS
CENTRAL PARK   CLOUDY    73  48  41 W3        30.10R
LAGUARDIA APRT MOCLDY    76  54  46 W5        30.06S
KENNEDY INTL   PTCLDY    64  57  78 S7        30.08S
NEWARK/LIBERTY MOCLDY    66  51  58 SW3       30.07S
BRNX BOT. GARD   N/A     73  48  40 SW6       30.07S
TETERBORO      CLOUDY    65  50  58 CALM      30.06S
$$

NYZ177-179-078>081-260900-
LONG ISLAND NEW YORK

CITY           SKY/WX    TMP DP  RH WIND       PRES   REMARKS
FARMINGDALE    CLOUDY    66  52  60 CALM      30.07R
ISLIP          CLOUDY    59  54  83 CALM      30.07R
SHIRLEY        PTCLDY    61  56  83 CALM      30.07R
RIVERHEAD        N/A     59  55  88 CALM      30.06S
WESTHAMPTON    NOT AVBL
EAST HAMPTON   FAIR      57  53  86 CALM      30.06R
MONTAUK POINT    N/A     60  55  83 S3        30.07S
$$

NYZ052-065-067-260900-
HUDSON VALLEY

CITY           SKY/WX    TMP DP  RH WIND       PRES   REMARKS
WHITE PLAINS   CLOUDY    63  53  70 NW7       30.07R
NEWBURGH       NOT AVBL
MONTGOMERY     PTCLDY    58  55  90 CALM      30.08R
POUGHKEEPSIE   CLOUDY    59  55  87 CALM      30.06S
ALBANY         CLOUDY    60  54  80 NE3       30.07R
$$

NJZ001-105-106-008-010-013-015-019>022-104-260900-
NEW JERSEY

CITY           SKY/WX    TMP DP  RH WIND       PRES   REMARKS
NEWARK/LIBERTY MOCLDY    66  51  58 SW3       30.07S
TETERBORO      CLOUDY    65  50  58 CALM      30.06S
CALDWELL       CLEAR     62  53  72 CALM      30.08S
MORRISTOWN     PTCLDY    55  52  88 CALM      30.08S
SOMERVILLE     CLEAR     56  53  90 CALM      30.07R
SUSSEX         PTCLDY    54  51  90 CALM      30.10R
ANDOVER          N/A     57  55  93 CALM      30.10S
TRENTON        CLEAR     62  52  69 CALM      30.09R
MILLVILLE      CLEAR     55  53  93 CALM      30.11S
ATLANTIC CITY  CLEAR     65  56  72 SW5       30.10F
WRIGHTSTOWN    PTCLDY    64  55  75 SW5       30.08R
TOMS RIVER     CLOUDY    63  52  67 SW6       30.10S
BELMAR         CLOUDY    66  54  65 SW6       30.10S
$$

PAZ047>061-062-071-260900-
EASTERN PENNSYLVANIA

CITY           SKY/WX    TMP DP  RH WIND       PRES   REMARKS
PHILADELPHIA   PTCLDY    66  55  67 SW6       30.11S
ALLENTOWN      CLOUDY    61  53  75 CALM      30.10R
SCRANTON       PTCLDY    58  52  80 SE3       30.11R
$$

CTZ002-004>006-009-010-012-RIZ004-006-007-MAZ004-011-015-260900-
SOUTHERN NEW ENGLAND
 IN CT

CITY           SKY/WX    TMP DP  RH WIND       PRES   REMARKS
BRADLEY INTL   CLOUDY    64  54  69 NW6       30.05R
HARTFORD       CLOUDY    63  56  78 S3        30.06R
DANBURY        CLOUDY    57  53  86 SW3       30.09S
WTRBRY/OXFORD    N/A     59  52  77 NW3       30.10R
BRIDGEPORT     PTCLDY    66  53  63 CALM      30.06R
MERIDEN        CLOUDY    59  55  87 CALM      30.07R
NEW HAVEN      CLOUDY    59  54  83 CALM      30.06R
CHESTER        FAIR      66  54  63 NW3       30.07R
GROTON         CLOUDY    58  56  93 CALM      30.05R
WILLIMANTIC    CLEAR     60  55  83 CALM      30.07R

 IN RI

CITY           SKY/WX    TMP DP  RH WIND       PRES   REMARKS
PROVIDENCE     PTCLDY    66  51  58 W8        30.05R
BLOCK ISLAND   CLEAR     64  51  62 W9        30.06S
WESTERLY       CLEAR     58  52  80 N3        30.06R

 IN MA

CITY           SKY/WX    TMP DP  RH WIND       PRES   REMARKS
BOSTON         MOCLDY    70  54  56 NW8       30.03R
WORCESTER      PTCLDY    64  51  62 W10       30.07R
WESTFIELD      PTCLDY    58  54  86 N3        30.06R
PROVINCETOWN   CLOUDY    54  51  90 CALM      30.03R
NANTUCKET      PTCLDY    63  51  65 W12       30.04R
$$

ANZ330-335-338-340-345-350-353-355-260900-
COASTAL MARINE OBSERVATIONS


STATION/POSITION TIME  SKY/WX   TEMP    WIND        PRES    VSBY  WAVE
                                AIR SEA DIR/SP/G                  HT/PER
                 (UTC)          (F)     (DEG/KT/KT) (MB)    (MI)  (FT/S)
NY HARB ENTRANCE 0650            63 59  220/  8/  8 1018.0          2/ 8
20S FIRE ISLAND  0650            61 57  230/ 10/ 12 1018.1          3/ 8
GREAT SOUTH BAY  0730            65 65  260/  8/ 10   N/A
23 SSW MONTAUK P 0750            60 55  250/ 12/ 14 1017.4          3/ 8
15 E BARNEGAT LI 0722               56                N/A           3/ 8
HUDSON CANYON    0650            59 56              1019.1          3/11
KINGS POINT      0700            71 58              1017.8
EXECUTION ROCKS  NOT AVBL
CENTRAL LI SOUND 0700            62     210/  2/  4   N/A           0
EASTERN LI SOUND 0700            58 53  240/  4/  6   N/A
ROBBINS REEF     0706            73     260/  9/ 11 1017.6
$$


>>>>>>>>>>>>>>>>>>>>>>>>>>>> KEY <<<<<<<<<<<<<<<<<<<<<<<<<<<
>                                                          <
>     SKY/WX - SKY CONDITION/PRESENT WEATHER               <
>     TMP    - TEMPERATURE IN FAHRENHEIT                   <
>     DP     - DEWPOINT IN FAHRENHEIT                      <
>     RH     - RELATIVE HUMIDITY IN PERCENT                <
>     WIND   - DIRECTION AND SPEED IN MPH                  <
>     PRES   - MEAN SEA LEVEL PRESSURE IN INCHES OF HG     <
>     WCI    - WIND CHILL INDEX                            <
>     VSB    - VISIBILITY IN MILES                         <
>     HX     - HEAT INDEX                                  <
>     TC     - TEMPERATURE IN CELSIUS                      <
>     VRB    - VARIABLE WIND DIRECTION                     <
>                                                          <
>>>>>>>>>>>>>>>>>>>>>>>>>>>> KEY <<<<<<<<<<<<<<<<<<<<<<<<<<<





USA.gov is the U.S. government's official web portal to all federal, state and local government web resources and services.